TURKSAT 4B

Last updated on Tue Oct 08 2024 00:02:40 GMT+0000 (Coordinated Universal Time)

1 40984U 15060A 24281.20465913 .00000126 00000+0 00000+0 0 9991 2 40984 0.0675 84.0994 0002653 55.8471 0.0778 1.00272819 32901
UTC large
Height (km)
Speed (km/s)
/
Latitude / Longitude
Inclination (degrees)
Orbital Period (minutes)
Azimuth
Elevation
Range (km)
Doppler Factor

Next 0 passes for location: London (51.5072 / 0.1276)

Sorry there are no passes over London.